Sawyer, ND (58781)

10:52 PM CDT on March 26, 2017 (GMT -0500)
KD0ASL WX | | Change Station
Active Advisory: Flood Warning

Elev 1511 ft 48.22 °N, 100.91 °W | Updated 12 seconds ago

Mostly Cloudy
Mostly Cloudy
38.7 °F
Feels Like 39 °F
N
2.0
Wind Variable Wind from SSW

Today
High -- | Low -- °F
--% Chance of Precip.
Yesterday
High -- | Low -- °F
Precip. -- in
Pressure 29.92 in
Visibility 10.0 miles
Clouds Mostly Cloudy 10000 ft
Windchill 39 °F
Dew Point 38 °F
Humidity 98%
Rainfall 0.00 in
Snow Depth Not available.
7:34 AM 8:06 PM
Waning Crescent, 1% visible
METAR KMOT 270254Z 07006KT 10SM BKN100 08/04 A2988 RMK AO2 SLP130 T00780039 53008
Pressure 29.92 in
Visibility 10.0 miles
Clouds Mostly Cloudy 10000 ft
Windchill 39 °F
Dew Point 38 °F
Humidity 98%
Rainfall 0.00 in
Snow Depth Not available.
7:34 AM 8:06 PM
Waning Crescent, 1% visible
METAR KMOT 270254Z 07006KT 10SM BKN100 08/04 A2988 RMK AO2 SLP130 T00780039 53008

Get Your Daily Forecast Email!

Thanks for signing up!

Be on the lookout for a verification email in your inbox.

You'll start receiving severe weather alerts in your inbox..

×

10-Day Weather Forecast

Almanac

Astronomy

Mar. 26, 2017 Rise Set
Actual Time
Civil Twilight
Nautical Twilight
Astronomical Twilight
Moon
Length of Visible Light
Length of Day
Tomorrow will be .
, % of the Moon is Illuminated

Today's Extremes

State Highs State Lows

Community

WunderPhotos

Upload Photos

1,962,540 photos uploaded!

WunderBlog® & News

Nearby

Air Quality

  Air Quality AQ Index Pollutant
Not available.

Snow Depth

Station Depth Elevation

Earthquake Activity

City Distance Mag. Time & Date
Minimum magnitude displayed is 2.5.

Earthquake Activity

City Distance Mag. Time & Date
Minimum magnitude displayed is 2.5.

Coastal Water Temperatures

Place Temperature

Stations

Nearby Weather Stations

Station Location Temp. Windchill Dew Point Humidity Wind Precip. Elev Updated Type
                   

Watches & Warnings

Flood Warning
Issued: 12:52 PM CDT Mar. 26, 2017 – National Weather Service

The Flood Warning continues for
the Souris river near Foxholm.
* Until further notice.
* At 12:15 PM Sunday the stage was 1573 feet.
* Flood stage is 1573 feet.
* Minor flooding is occurring and minor flooding is forecast.
* Forecast... the river will continue rising to near 1573 feet by this
afternoon. Additional rises may be possible thereafter.
* Impact... at 1575 feet... rural flooding begins.



             Fld observed forecasts (1pm)
location stg stg day/time Mon Tue Wed Thu Fri

Souris river basin
Foxholm 1573 1573.2 sun 12 PM 1573.2 1573.2 1573.2 1573.2 1573.2


Lat... Lon 4845 10159 4845 10155 4843 10151 4828 10140
      4827 10142 4837 10152